GW7213 Weather Reports


time (UTC)temp
C
wind
direction
speed
KPH
gust
KPH
rain 1hr
cm
rain 24hr
cm
rain mn
cm
humidity
%
barometer
mb
20260510031255 12 0.0 0.0 0.00 0.00 0.00 84 1009.9
20260510030756 12 0.0 0.0 0.00 0.00 0.00 84 1009.9
20260510030255 12 0.0 0.0 0.00 0.00 0.00 84 1009.9
20260510025755 12 0.0 0.0 0.00 0.00 0.00 84 1009.9
20260510025255 12 0.0 0.0 0.00 0.00 0.00 84 1009.9
20260510024755 12 0.0 0.0 0.00 0.00 0.00 84 1009.9
20260510024255 12 0.0 0.0 0.00 0.00 0.00 84 1009.9
20260510023755 12 0.0 0.0 0.00 0.00 0.00 83 1010.1
20260510023256 12 0.0 0.0 0.00 0.00 0.00 83 1010.1
20260510022755 12 0.0 0.0 0.00 0.00 0.00 83 1010.1
20260510022255 12 0.0 0.0 0.00 0.00 0.00 83 1010.1
20260510021756 12 0.0 0.0 0.00 0.00 0.00 82 1009.7
20260510021255 12 0.0 0.0 0.00 0.00 0.00 82 1009.7
20260510020755 12 0.0 0.0 0.00 0.00 0.00 82 1009.7
20260510020255 12 0.0 0.0 0.00 0.00 0.00 82 1009.7
20260510015755 12 0.0 0.0 0.00 0.00 0.00 85 1009.7
20260510015255 12 0.0 0.0 0.00 0.00 0.00 85 1009.7
20260510014755 12 0.0 0.0 0.00 0.00 0.00 85 1009.7
20260510014255 12 0.0 0.0 0.00 0.00 0.00 85 1009.7
20260510013755 12 0.0 0.0 0.00 0.00 0.00 84 1009.8
20260510013255 12 0.0 0.0 0.00 0.00 0.00 84 1009.8
20260510012755 12 0.0 0.0 0.00 0.00 0.00 84 1009.8
20260510012255 12 0.0 0.0 0.00 0.00 0.00 84 1009.8
20260510011755 11 0.0 0.0 0.00 0.00 0.00 83 1010.1
20260510011255 11 0.0 0.0 0.00 0.00 0.00 83 1010.1
20260510010755 11 0.0 0.0 0.00 0.00 0.00 83 1010.1
20260510010255 11 0.0 0.0 0.00 0.00 0.00 83 1010.1
20260510005755 11 0.0 0.0 0.00 0.00 0.00 81 1009.9
20260510005255 11 0.0 0.0 0.00 0.00 0.00 81 1009.9
20260510004755 11 0.0 0.0 0.00 0.00 0.00 81 1009.9
20260510004256 11 0.0 0.0 0.00 0.00 0.00 81 1009.9
20260510003756 12 0.0 0.0 0.00 0.00 0.00 79 1009.8
20260510003256 13 0.0 0.0 0.00 0.00 0.00 73 1009.9
20260510002755 14 0.0 0.0 0.00 0.00 0.00 63 1009.4
20260510002255 17 0.0 0.0 0.00 0.00 0.00 50 1008.7
20260510001755 18 0.0 0.0 0.00 0.00 0.00 47 1007.4
20260510001255 18 0.0 0.0 0.00 0.00 0.00 45 1006.7
20260510000755 18 0.0 0.0 0.00 0.00 0.00 45 1006.7
20260510000256 18 0.0 0.0 0.00 0.00 0.00 45 1006.6
20260509235754 18 0.0 0.0 0.00 0.00 0.00 45 1006.4
20260509235256 18 0.0 0.0 0.00 0.00 0.00 45 1006.4
20260509234756 19 0.0 0.0 0.00 0.00 0.00 45 1006.3
20260509234255 19 0.0 0.0 0.00 0.00 0.00 45 1006.2
20260509233756 19 0.0 0.0 0.00 0.00 0.00 45 1006.1
20260509233256 19 0.0 0.0 0.00 0.00 0.00 44 1006.2
20260509232755 19 0.0 0.0 0.00 0.00 0.00 44 1006.1
20260509232255 20 0.0 0.0 0.00 0.00 0.00 43 1005.9
20260509231755 20 0.0 0.0 0.00 0.00 0.00 43 1005.9
20260509231256 22 0.0 0.0 0.00 0.00 0.00 36 1005.4
20260509230755 22 0.0 0.0 0.00 0.00 0.00 36 1005.4
20260509230255 22 0.0 0.0 0.00 0.00 0.00 36 1005.4
20260509225755 22 0.0 0.0 0.00 0.00 0.00 36 1005.4
20260509225256 25 0.0 0.0 0.00 0.00 0.00 33 1005.2
20260509224755 25 0.0 0.0 0.00 0.00 0.00 33 1005.2
20260509224256 25 0.0 0.0 0.00 0.00 0.00 33 1005.2
20260509223754 25 0.0 0.0 0.00 0.00 0.00 33 1005.2
20260509223256 25 0.0 0.0 0.00 0.00 0.00 33 1005.2
20260509222755 25 0.0 0.0 0.00 0.00 0.00 33 1005.2
20260509222256 25 0.0 0.0 0.00 0.00 0.00 34 1005.5
20260509221756 25 0.0 0.0 0.00 0.00 0.00 34 1005.5
20260509221256 25 0.0 0.0 0.00 0.00 0.00 34 1005.5
20260509220755 25 0.0 0.0 0.00 0.00 0.00 34 1005.5
20260509220255 25 0.0 0.0 0.00 0.00 0.00 34 1005.5
20260509215754 25 0.0 0.0 0.00 0.00 0.00 34 1005.5
20260509215255 25 0.0 0.0 0.00 0.00 0.00 32 1005.4
20260509214755 25 0.0 0.0 0.00 0.00 0.00 32 1005.4
20260509214255 25 0.0 0.0 0.00 0.00 0.00 32 1005.4
20260509213755 25 0.0 0.0 0.00 0.00 0.00 32 1005.4
20260509213256 25 0.0 0.0 0.00 0.00 0.00 32 1005.4
20260509212755 25 0.0 0.0 0.00 0.00 0.00 32 1005.4
20260509212256 26 0.0 0.0 0.00 0.00 0.00 33 1005.8
20260509211755 26 0.0 0.0 0.00 0.00 0.00 33 1005.8
20260509211256 26 0.0 0.0 0.00 0.00 0.00 33 1005.8
20260509210756 26 0.0 0.0 0.00 0.00 0.00 33 1005.8
20260509210255 26 0.0 0.0 0.00 0.00 0.00 33 1005.8
20260509205755 26 0.0 0.0 0.00 0.00 0.00 33 1005.8
20260509205255 24 0.0 0.0 0.00 0.00 0.00 36 1006.6
20260509204755 24 0.0 0.0 0.00 0.00 0.00 36 1006.6
20260509204255 24 0.0 0.0 0.00 0.00 0.00 36 1006.6
20260509203755 24 0.0 0.0 0.00 0.00 0.00 36 1006.6
20260509203256 24 0.0 0.0 0.00 0.00 0.00 36 1006.6
20260509202755 24 0.0 0.0 0.00 0.00 0.00 36 1006.6
20260509202256 22 0.0 0.0 0.00 0.00 0.00 40 1007.3
20260509201755 22 0.0 0.0 0.00 0.00 0.00 40 1007.3
20260509201255 22 0.0 0.0 0.00 0.00 0.00 40 1007.3
20260509200755 22 0.0 0.0 0.00 0.00 0.00 40 1007.3
20260509200255 22 0.0 0.0 0.00 0.00 0.00 40 1007.3
20260509195756 22 0.0 0.0 0.00 0.00 0.00 40 1007.3
20260509195255 22 0.0 0.0 0.00 0.00 0.00 41 1007.3
20260509194756 22 0.0 0.0 0.00 0.00 0.00 41 1007.3
20260509194255 22 0.0 0.0 0.00 0.00 0.00 41 1007.3
20260509193756 22 0.0 0.0 0.00 0.00 0.00 41 1007.3
20260509193255 22 0.0 0.0 0.00 0.00 0.00 41 1007.3
20260509192755 22 0.0 0.0 0.00 0.00 0.00 41 1007.3
20260509192255 22 0.0 0.0 0.00 0.00 0.00 45 1007.7
20260509191756 22 0.0 0.0 0.00 0.00 0.00 45 1007.7
20260509191255 22 0.0 0.0 0.00 0.00 0.00 45 1007.7
20260509190755 22 0.0 0.0 0.00 0.00 0.00 45 1007.7
20260509190256 22 0.0 0.0 0.00 0.00 0.00 45 1007.7
20260509185755 22 0.0 0.0 0.00 0.00 0.00 45 1007.7
20260509185256 21 0.0 0.0 0.00 0.00 0.00 48 1007.8
20260509184755 21 0.0 0.0 0.00 0.00 0.00 48 1007.8
20260509184256 21 0.0 0.0 0.00 0.00 0.00 48 1007.8
20260509183755 21 0.0 0.0 0.00 0.00 0.00 48 1007.8
20260509183255 21 0.0 0.0 0.00 0.00 0.00 48 1007.8
20260509182755 21 0.0 0.0 0.00 0.00 0.00 48 1007.8
20260509182254 20 0.0 0.0 0.00 0.00 0.00 50 1008.1
20260509181755 20 0.0 0.0 0.00 0.00 0.00 50 1008.1
20260509181255 20 0.0 0.0 0.00 0.00 0.00 50 1008.1
20260509180755 20 0.0 0.0 0.00 0.00 0.00 50 1008.1
20260509180255 20 0.0 0.0 0.00 0.00 0.00 50 1008.1
20260509175755 20 0.0 0.0 0.00 0.00 0.00 50 1008.1
20260509175255 18 0.0 0.0 0.00 0.00 0.00 59 1008.6
20260509174755 18 0.0 0.0 0.00 0.00 0.00 59 1008.6
20260509174255 18 0.0 0.0 0.00 0.00 0.00 59 1008.6
20260509173756 18 0.0 0.0 0.00 0.00 0.00 59 1008.6
20260509173256 18 0.0 0.0 0.00 0.00 0.00 59 1008.6
20260509172756 18 0.0 0.0 0.00 0.00 0.00 59 1008.6
20260509172255 16 0.0 0.0 0.00 0.00 0.00 65 1009.0
20260509171755 16 0.0 0.0 0.00 0.00 0.00 65 1009.0
20260509171255 16 0.0 0.0 0.00 0.00 0.00 65 1009.0
20260509170756 16 0.0 0.0 0.00 0.00 0.00 65 1009.0
20260509170255 16 0.0 0.0 0.00 0.00 0.00 65 1009.0
20260509165755 16 0.0 0.0 0.00 0.00 0.00 65 1009.0
20260509165255 14 0.0 0.0 0.00 0.00 0.00 76 1009.2
20260509164755 14 0.0 0.0 0.00 0.00 0.00 76 1009.2
20260509164255 14 0.0 0.0 0.00 0.00 0.00 76 1009.2
20260509163755 14 0.0 0.0 0.00 0.00 0.00 76 1009.2
20260509163255 14 0.0 0.0 0.00 0.00 0.00 76 1009.2
20260509162755 14 0.0 0.0 0.00 0.00 0.00 76 1009.2
20260509162255 15 0.0 0.0 0.00 0.00 0.00 71 1008.9
20260509161755 15 0.0 0.0 0.00 0.00 0.00 71 1008.9
20260509161255 15 0.0 0.0 0.00 0.00 0.00 71 1008.9
20260509160755 15 0.0 0.0 0.00 0.00 0.00 71 1008.9
20260509160255 15 0.0 0.0 0.00 0.00 0.00 71 1008.9
20260509155755 15 0.0 0.0 0.00 0.00 0.00 71 1008.9
20260509155255 13 0.0 0.0 0.00 0.00 0.00 77 1009.2
20260509154755 13 0.0 0.0 0.00 0.00 0.00 77 1009.2
20260509154255 13 0.0 0.0 0.00 0.00 0.00 77 1009.2
20260509153755 13 0.0 0.0 0.00 0.00 0.00 77 1009.2
20260509153256 13 0.0 0.0 0.00 0.00 0.00 77 1009.2
20260509152755 13 0.0 0.0 0.00 0.00 0.00 77 1009.2
20260509152255 13 0.0 0.0 0.00 0.00 0.00 79 1009.2
20260509151756 13 0.0 0.0 0.00 0.00 0.00 79 1009.2
20260509151256 13 0.0 0.0 0.00 0.00 0.00 79 1009.2
20260509150755 13 0.0 0.0 0.00 0.00 0.00 79 1009.2
20260509150255 13 0.0 0.0 0.00 0.00 0.00 79 1009.2
20260509145756 13 0.0 0.0 0.00 0.00 0.00 79 1009.2
20260509145255 12 0.0 0.0 0.00 0.00 0.00 82 1009.2
20260509144755 12 0.0 0.0 0.00 0.00 0.00 82 1009.2
20260509144257 12 0.0 0.0 0.00 0.00 0.00 82 1009.2
20260509143755 12 0.0 0.0 0.00 0.00 0.00 82 1009.2
20260509143255 12 0.0 0.0 0.00 0.00 0.00 82 1009.2
20260509142754 12 0.0 0.0 0.00 0.00 0.00 82 1009.2
20260509142255 11 0.0 0.0 0.00 0.00 0.00 84 1009.6
20260509141755 11 0.0 0.0 0.00 0.00 0.00 84 1009.6
20260509141256 11 0.0 0.0 0.00 0.00 0.00 84 1009.6
20260509140755 11 0.0 0.0 0.00 0.00 0.00 84 1009.6
20260509140255 11 0.0 0.0 0.00 0.00 0.00 84 1009.6
20260509135755 11 0.0 0.0 0.00 0.00 0.00 84 1009.6
20260509135255 11 0.0 0.0 0.00 0.00 0.00 84 1009.6
20260509134755 11 0.0 0.0 0.00 0.00 0.00 84 1009.6
20260509134255 11 0.0 0.0 0.00 0.00 0.00 84 1009.6
20260509133755 11 0.0 0.0 0.00 0.00 0.00 84 1009.6
20260509133255 11 0.0 0.0 0.00 0.00 0.00 84 1009.6
20260509132756 11 0.0 0.0 0.00 0.00 0.00 84 1009.6
20260509132255 10 0.0 0.0 0.00 0.00 0.00 85 1009.8
20260509131755 10 0.0 0.0 0.00 0.00 0.00 85 1009.8
20260509131256 10 0.0 0.0 0.00 0.00 0.00 85 1009.8
20260509130755 10 0.0 0.0 0.00 0.00 0.00 85 1009.8
20260509130255 10 0.0 0.0 0.00 0.00 0.00 85 1009.8
20260509125755 10 0.0 0.0 0.00 0.00 0.00 85 1009.8
20260509125256 10 0.0 0.0 0.00 0.00 0.00 86 1009.9
20260509124756 10 0.0 0.0 0.00 0.00 0.00 86 1009.9
20260509124255 10 0.0 0.0 0.00 0.00 0.00 86 1009.9
20260509123756 10 0.0 0.0 0.00 0.00 0.00 86 1009.9
20260509123254 10 0.0 0.0 0.00 0.00 0.00 86 1009.9
20260509122755 10 0.0 0.0 0.00 0.00 0.00 86 1009.9
20260509122255 10 0.0 0.0 0.00 0.00 0.00 86 1009.8
20260509121755 10 0.0 0.0 0.00 0.00 0.00 86 1009.8
20260509121255 10 0.0 0.0 0.00 0.00 0.00 86 1009.8
20260509120755 10 0.0 0.0 0.00 0.00 0.00 86 1009.8
20260509120255 10 0.0 0.0 0.00 0.00 0.00 86 1009.8
20260509115755 10 0.0 0.0 0.00 0.00 0.00 86 1009.8
20260509115255 10 0.0 0.0 0.00 0.00 0.00 86 1009.7
20260509114756 10 0.0 0.0 0.00 0.00 0.00 86 1009.7
20260509114255 10 0.0 0.0 0.00 0.00 0.00 86 1009.7
20260509113755 10 0.0 0.0 0.00 0.00 0.00 86 1009.7
20260509113256 10 0.0 0.0 0.00 0.00 0.00 86 1009.7
20260509112755 10 0.0 0.0 0.00 0.00 0.00 86 1009.7
20260509112255 10 0.0 0.0 0.00 0.00 0.00 86 1009.7
20260509111755 10 0.0 0.0 0.00 0.00 0.00 86 1009.7
20260509111255 10 0.0 0.0 0.00 0.00 0.00 86 1009.7
20260509110756 10 0.0 0.0 0.00 0.00 0.00 86 1009.7
20260509110255 10 0.0 0.0 0.00 0.00 0.00 86 1009.7
20260509105756 10 0.0 0.0 0.00 0.00 0.00 86 1009.7
20260509105256 9 0.0 0.0 0.00 0.00 0.00 86 1009.9
20260509104755 9 0.0 0.0 0.00 0.00 0.00 86 1009.9
20260509104255 9 0.0 0.0 0.00 0.00 0.00 86 1009.9
20260509103755 9 0.0 0.0 0.00 0.00 0.00 86 1009.9
20260509103256 9 0.0 0.0 0.00 0.00 0.00 86 1009.9
20260509102755 9 0.0 0.0 0.00 0.00 0.00 86 1009.9
20260509102255 9 0.0 0.0 0.00 0.00 0.00 86 1010.1
20260509101755 9 0.0 0.0 0.00 0.00 0.00 86 1010.1
20260509101255 9 0.0 0.0 0.00 0.00 0.00 86 1010.1
20260509100756 9 0.0 0.0 0.00 0.00 0.00 86 1010.1
20260509100255 9 0.0 0.0 0.00 0.00 0.00 86 1010.1
20260509095755 9 0.0 0.0 0.00 0.00 0.00 86 1010.1
20260509095256 9 0.0 0.0 0.00 0.00 0.00 86 1010.4
20260509094756 9 0.0 0.0 0.00 0.00 0.00 86 1010.4
20260509094255 9 0.0 0.0 0.00 0.00 0.00 86 1010.4
20260509093756 9 0.0 0.0 0.00 0.00 0.00 86 1010.4
20260509093255 9 0.0 0.0 0.00 0.00 0.00 86 1010.4
20260509092755 9 0.0 0.0 0.00 0.00 0.00 86 1010.4
20260509092255 9 0.0 0.0 0.00 0.00 0.00 85 1010.7
20260509091755 9 0.0 0.0 0.00 0.00 0.00 85 1010.7
20260509091255 9 0.0 0.0 0.00 0.00 0.00 85 1010.7
20260509090755 9 0.0 0.0 0.00 0.00 0.00 85 1010.7
20260509090255 9 0.0 0.0 0.00 0.00 0.00 85 1010.7
20260509085755 9 0.0 0.0 0.00 0.00 0.00 85 1010.7
20260509085256 9 0.0 0.0 0.00 0.00 0.00 85 1010.8
20260509084755 9 0.0 0.0 0.00 0.00 0.00 85 1010.8
20260509084255 9 0.0 0.0 0.00 0.00 0.00 85 1010.8
20260509083754 9 0.0 0.0 0.00 0.00 0.00 85 1010.8
20260509083255 9 0.0 0.0 0.00 0.00 0.00 85 1010.8
20260509082755 9 0.0 0.0 0.00 0.00 0.00 85 1010.8
20260509082255 9 0.0 0.0 0.00 0.00 0.00 85 1010.8
20260509081755 9 0.0 0.0 0.00 0.00 0.00 85 1010.8
20260509081255 9 0.0 0.0 0.00 0.00 0.00 85 1010.8
20260509080756 9 0.0 0.0 0.00 0.00 0.00 85 1010.8
20260509080256 9 0.0 0.0 0.00 0.00 0.00 85 1010.8
20260509075756 9 0.0 0.0 0.00 0.00 0.00 85 1010.8
20260509075256 9 0.0 0.0 0.00 0.00 0.00 85 1010.8
20260509074756 9 0.0 0.0 0.00 0.00 0.00 85 1010.8
20260509074256 9 0.0 0.0 0.00 0.00 0.00 85 1010.8
20260509073755 9 0.0 0.0 0.00 0.00 0.00 85 1010.8
20260509073256 9 0.0 0.0 0.00 0.00 0.00 85 1010.8
20260509072756 9 0.0 0.0 0.00 0.00 0.00 85 1010.8
20260509072255 9 0.0 0.0 0.00 0.00 0.00 85 1011.1
20260509071754 9 0.0 0.0 0.00 0.00 0.00 85 1011.1
20260509071256 9 0.0 0.0 0.00 0.00 0.00 85 1011.1
20260509070755 9 0.0 0.0 0.00 0.00 0.00 85 1011.1
20260509070256 9 0.0 0.0 0.00 0.00 0.00 85 1011.1
20260509065755 9 0.0 0.0 0.00 0.00 0.00 85 1011.1
20260509065255 9 0.0 0.0 0.00 0.00 0.00 85 1011.3
20260509064755 9 0.0 0.0 0.00 0.00 0.00 85 1011.3
20260509064255 9 0.0 0.0 0.00 0.00 0.00 85 1011.3
20260509063756 9 0.0 0.0 0.00 0.00 0.00 85 1011.3
20260509063256 9 0.0 0.0 0.00 0.00 0.00 85 1011.3
20260509062755 9 0.0 0.0 0.00 0.00 0.00 85 1011.3
20260509062255 10 0.0 0.0 0.00 0.00 0.00 85 1011.6
20260509061755 10 0.0 0.0 0.00 0.00 0.00 85 1011.6
20260509061256 10 0.0 0.0 0.00 0.00 0.00 85 1011.6
20260509060755 10 0.0 0.0 0.00 0.00 0.00 85 1011.6
20260509060255 10 0.0 0.0 0.00 0.00 0.00 85 1011.6
20260509055755 10 0.0 0.0 0.00 0.00 0.00 85 1011.6
20260509055256 10 0.0 0.0 0.00 0.00 0.00 85 1012.0
20260509054755 10 0.0 0.0 0.00 0.00 0.00 85 1012.0
20260509054254 10 0.0 0.0 0.00 0.00 0.00 85 1012.0
20260509053756 10 0.0 0.0 0.00 0.00 0.00 85 1012.0
20260509053254 10 0.0 0.0 0.00 0.00 0.00 85 1012.0
20260509052755 10 0.0 0.0 0.00 0.00 0.00 85 1012.0
20260509052255 10 0.0 0.0 0.00 0.00 0.00 85 1012.2
20260509051755 10 0.0 0.0 0.00 0.00 0.00 85 1012.2
20260509051255 10 0.0 0.0 0.00 0.00 0.00 85 1012.2
20260509050756 10 0.0 0.0 0.00 0.00 0.00 85 1012.2
20260509050256 10 0.0 0.0 0.00 0.00 0.00 85 1012.2
20260509045755 10 0.0 0.0 0.00 0.00 0.00 85 1012.2
20260509045254 10 0.0 0.0 0.00 0.00 0.00 85 1012.6
20260509044755 10 0.0 0.0 0.00 0.00 0.00 85 1012.6
20260509044255 10 0.0 0.0 0.00 0.00 0.00 85 1012.6
20260509043756 10 0.0 0.0 0.00 0.00 0.00 85 1012.6
20260509043255 10 0.0 0.0 0.00 0.00 0.00 85 1012.6
20260509042755 10 0.0 0.0 0.00 0.00 0.00 85 1012.6
20260509042255 10 0.0 0.0 0.00 0.00 0.00 85 1012.8
20260509041754 10 0.0 0.0 0.00 0.00 0.00 85 1012.8
20260509041255 10 0.0 0.0 0.00 0.00 0.00 85 1012.8
20260509040756 10 0.0 0.0 0.00 0.00 0.00 85 1012.8
20260509040255 10 0.0 0.0 0.00 0.00 0.00 85 1012.8
20260509035755 10 0.0 0.0 0.00 0.00 0.00 85 1012.8
20260509035255 10 0.0 0.0 0.00 0.00 0.00 85 1013.2
20260509034755 10 0.0 0.0 0.00 0.00 0.00 85 1013.2
20260509034255 10 0.0 0.0 0.00 0.00 0.00 85 1013.2
20260509033755 10 0.0 0.0 0.00 0.00 0.00 85 1013.2
20260509033256 10 0.0 0.0 0.00 0.00 0.00 85 1013.2
20260509032755 10 0.0 0.0 0.00 0.00 0.00 85 1013.2
20260509032255 10 0.0 0.0 0.00 0.00 0.00 85 1013.2
20260509031755 10 0.0 0.0 0.00 0.00 0.00 85 1013.2